User: anonymous   Login
Location: Unspecified
(0.0000°N, 0.0000°E)
Time: 03:05:43
(UTC+00:00)
Language:

Vela 3A - Orbit

View from above orbital plane
View from above orbital plane
View from above satellite
View from above satellite

Ground track
Ground track

The orbit data is extracted from the following two-line orbital elements,

1 01458U 65058A   15108.02185727 -.00001558  00000-0  00000+0 0  9998
2 01458 022.4109 011.5272 5141264 193.7883 359.8124 00.21487380 77489
Epoch (UTC): 18 April 2015 00:31:28
Eccentricity: 0.5141264
inclination: 22.4109°
perigee height: 50831 km
apogee height: 171902 km
right ascension of ascending node: 11.5272°
argument of perigee: 193.7883°
revolutions per day: 0.21487380
mean anomaly at epoch: 359.8124°
orbit number at epoch: 7748

The dashed part of the orbit path shows where the satellite is in the earth's shadow,  

DLR